Weather History for Jamestown, NY

Change the Weather History Date:

Tuesday, April 23, 2013

  Actual Average Record
Temperature  
Mean Temperature 50 °F -  
Max Temperature 66 °F 59 °F 85 °F (1985)
Min Temperature 35 °F 34 °F 20 °F (1986)
Degree Days  
Heating Degree Days 14    
Moisture  
Dew Point 29 °F    
Average Humidity 45    
Maximum Humidity 70    
Minimum Humidity 26    
Precipitation  
Precipitation 0.00 in - - ()
Sea Level Pressure  
Sea Level Pressure 30.15 in    
Wind  
Wind Speed 9 mph (South)    
Max Wind Speed 16 mph    
Max Gust Speed 21 mph    
Visibility 10 miles    
Events      
Averages and records for this station are not official NWS values.
T = Trace of Precipitation, MM = Missing Value Source: NWS Daily Summary

Daily Weather History Graph

Daily Weather History Graph

Search for Another Location

Airport:

Trip Planner

Search our weather history database for the weather conditions in past years. The results will help you decide how hot, cold, wet, or windy it might be!

Date:

Astronomy

Apr. 23, 2013 Rise Set
Actual Time 6:23 AM EDT 8:07 PM EDT
Civil Twilight 5:53 AM EDT 8:37 PM EDT
Nautical Twilight 5:17 AM EDT 9:13 PM EDT
Astronomical Twilight 4:39 AM EDT 9:52 PM EDT
Moon 5:58 PM EDT (4/23) 4:53 AM EDT (4/23)
Length of Visible Light 14h 43m
Length of Day
13h 43m
Waxing Gibbous, 94% of the Moon is Illuminated
Apr 23
Waxing Gibbous
Apr 25
Full
May 2
Last Quarter
May 9
New
May 18
First Quarter

Hourly Weather History & Observations

Time (EDT) Temp. Windchill Dew Point Humidity Pressure Visibility Wind Dir Wind Speed Gust Speed Precip Events Conditions
12:15 AM 44.6 °F 40.2 °F 21.2 °F 39% 30.31 in 10.0 mi SSE 8.1 mph - N/A   Clear
12:35 AM 44.6 °F 39.7 °F 23.0 °F 43% 30.30 in 10.0 mi SSE 9.2 mph - N/A   Clear
12:55 AM 44.6 °F 39.7 °F 24.8 °F 46% 30.30 in 10.0 mi SSE 9.2 mph - N/A   Clear
1:15 AM 42.8 °F 38.0 °F 24.8 °F 49% 30.30 in 10.0 mi South 8.1 mph - N/A   Clear
1:35 AM 42.8 °F 38.0 °F 26.6 °F 53% 30.30 in 10.0 mi SSE 8.1 mph - N/A   Clear
1:55 AM 42.8 °F 38.6 °F 26.6 °F 53% 30.30 in 10.0 mi SSE 6.9 mph - N/A   Clear
2:15 AM 42.8 °F 38.6 °F 26.6 °F 53% 30.30 in 10.0 mi South 6.9 mph - N/A   Clear
2:35 AM 41.0 °F 36.4 °F 26.6 °F 57% 30.30 in 10.0 mi South 6.9 mph - N/A   Clear
2:55 AM 39.2 °F 33.6 °F 26.6 °F 61% 30.30 in 10.0 mi SSE 8.1 mph - N/A   Clear
3:15 AM 39.2 °F 33.0 °F 26.6 °F 61% 30.29 in 10.0 mi SSE 9.2 mph - N/A   Clear
3:35 AM 39.2 °F 35.0 °F 26.6 °F 61% 30.29 in 10.0 mi SSE 5.8 mph - N/A   Clear
3:55 AM 39.2 °F 32.0 °F 26.6 °F 61% 30.28 in 10.0 mi SSE 11.5 mph - N/A   Clear
4:15 AM 39.2 °F 33.6 °F 26.6 °F 61% 30.28 in 10.0 mi SSE 8.1 mph - N/A   Clear
4:35 AM 37.4 °F 30.8 °F 26.6 °F 65% 30.27 in 10.0 mi SSE 9.2 mph - N/A   Clear
4:55 AM 37.4 °F 30.3 °F 26.6 °F 65% 30.27 in 10.0 mi SSE 10.4 mph - N/A   Clear
5:15 AM 37.4 °F 31.4 °F 24.8 °F 60% 30.26 in 10.0 mi South 8.1 mph - N/A   Clear
5:35 AM 37.4 °F 30.8 °F 24.8 °F 60% 30.26 in 10.0 mi SSE 9.2 mph - N/A   Clear
5:55 AM 35.6 °F 28.6 °F 26.6 °F 70% 30.26 in 10.0 mi SSE 9.2 mph - N/A   Clear
6:15 AM 35.6 °F 29.9 °F 26.6 °F 70% 30.25 in 10.0 mi South 6.9 mph - N/A   Clear
6:35 AM 35.6 °F 29.9 °F 26.6 °F 70% 30.24 in 10.0 mi South 6.9 mph - N/A   Clear
6:55 AM 35.6 °F 28.6 °F 26.6 °F 70% 30.24 in 10.0 mi South 9.2 mph - N/A   Clear
7:15 AM 35.6 °F 27.5 °F 26.6 °F 70% 30.24 in 10.0 mi South 11.5 mph - N/A   Clear
7:35 AM 37.4 °F 29.8 °F 26.6 °F 65% 30.24 in 10.0 mi South 11.5 mph - N/A   Clear
7:55 AM 37.4 °F 30.8 °F 26.6 °F 65% 30.24 in 10.0 mi South 9.2 mph - N/A   Clear
8:15 AM 37.4 °F 30.3 °F 26.6 °F 65% 30.23 in 10.0 mi SSE 10.4 mph - N/A   Clear
8:35 AM 39.2 °F 33.0 °F 26.6 °F 61% 30.22 in 10.0 mi South 9.2 mph 16.1 mph N/A   Clear
8:55 AM 39.2 °F 32.5 °F 26.6 °F 61% 30.21 in 10.0 mi South 10.4 mph - N/A   Clear
9:15 AM 42.8 °F 38.6 °F 28.4 °F 57% 30.20 in 10.0 mi SSE 6.9 mph - N/A   Clear
9:35 AM 42.8 °F 37.5 °F 28.4 °F 57% 30.20 in 10.0 mi South 9.2 mph - N/A   Clear
9:55 AM 44.6 °F 39.2 °F 28.4 °F 53% 30.20 in 10.0 mi SSE 10.4 mph - N/A   Clear
10:15 AM 46.4 °F 41.1 °F 30.2 °F 53% 30.19 in 10.0 mi South 11.5 mph - N/A   Clear
10:35 AM 46.4 °F 41.9 °F 30.2 °F 53% 30.20 in 10.0 mi South 9.2 mph 16.1 mph N/A   Clear
10:55 AM 48.2 °F - 30.2 °F 50% 30.18 in 10.0 mi South 10.4 mph - N/A   Clear
11:15 AM 50.0 °F - 30.2 °F 47% 30.18 in 10.0 mi SSW 8.1 mph - N/A   Clear
11:35 AM 51.8 °F - 30.2 °F 44% 30.18 in 10.0 mi SSW 6.9 mph - N/A   Clear
11:55 AM 53.6 °F - 30.2 °F 41% 30.18 in 10.0 mi WSW 6.9 mph - N/A   Clear
12:15 PM 55.4 °F - 32.0 °F 41% 30.19 in 10.0 mi SW 9.2 mph - N/A   Clear
12:35 PM 55.4 °F - 32.0 °F 41% 30.18 in 10.0 mi WSW 9.2 mph - N/A   Clear
12:55 PM 57.2 °F - 30.2 °F 36% 30.16 in 10.0 mi SSW 10.4 mph - N/A   Clear
1:15 PM 57.2 °F - 32.0 °F 38% 30.15 in 10.0 mi South 5.8 mph - N/A   Clear
1:35 PM 59.0 °F - 32.0 °F 36% 30.13 in 10.0 mi WSW 3.5 mph - N/A   Clear
1:55 PM 60.8 °F - 30.2 °F 31% 30.13 in 10.0 mi SW 6.9 mph - N/A   Clear
2:15 PM 60.8 °F - 33.8 °F 36% 30.11 in 10.0 mi South 5.8 mph - N/A   Clear
2:35 PM 62.6 °F - 32.0 °F 32% 30.10 in 10.0 mi SSE 4.6 mph 16.1 mph N/A   Clear
2:55 PM 62.6 °F - 32.0 °F 32% 30.08 in 10.0 mi SSE 9.2 mph - N/A   Clear
3:15 PM 62.6 °F - 32.0 °F 32% 30.07 in 10.0 mi SE 9.2 mph - N/A   Clear
3:35 PM 62.6 °F - 32.0 °F 32% 30.06 in 10.0 mi South 11.5 mph 16.1 mph N/A   Clear
3:55 PM 64.4 °F - 32.0 °F 30% 30.05 in 10.0 mi SSE 4.6 mph - N/A   Clear
4:15 PM 64.4 °F - 30.2 °F 28% 30.05 in 10.0 mi South 8.1 mph - N/A   Clear
4:35 PM 64.4 °F - 30.2 °F 28% 30.05 in 10.0 mi SSW 3.5 mph - N/A   Clear
4:55 PM 64.4 °F - 30.2 °F 28% 30.03 in 10.0 mi SSE 8.1 mph - N/A   Clear
5:15 PM 64.4 °F - 30.2 °F 28% 30.03 in 10.0 mi South 9.2 mph - N/A   Clear
5:35 PM 66.2 °F - 30.2 °F 26% 30.03 in 10.0 mi SSE 10.4 mph - N/A   Clear
5:55 PM 64.4 °F - 28.4 °F 26% 30.02 in 10.0 mi South 10.4 mph - N/A   Clear
6:15 PM 64.4 °F - 28.4 °F 26% 30.01 in 10.0 mi SSW 10.4 mph - N/A   Clear
6:35 PM 64.4 °F - 28.4 °F 26% 30.01 in 10.0 mi South 9.2 mph 17.3 mph N/A   Clear
6:55 PM 62.6 °F - 28.4 °F 27% 30.01 in 10.0 mi South 8.1 mph - N/A   Clear
7:15 PM 62.6 °F - 28.4 °F 27% 30.01 in 10.0 mi SSW 8.1 mph - N/A   Clear
7:35 PM 62.6 °F - 30.2 °F 30% 30.01 in 10.0 mi South 9.2 mph - N/A   Clear
7:55 PM 60.8 °F - 28.4 °F 29% 30.01 in 10.0 mi South 9.2 mph - N/A   Clear
8:15 PM 60.8 °F - 28.4 °F 29% 30.01 in 10.0 mi South 8.1 mph - N/A   Clear
8:35 PM 60.8 °F - 28.4 °F 29% 30.01 in 10.0 mi South 11.5 mph 16.1 mph N/A   Clear
8:55 PM 59.0 °F - 28.4 °F 31% 30.01 in 10.0 mi South 8.1 mph - N/A   Clear
9:15 PM 59.0 °F - 28.4 °F 31% 30.00 in 10.0 mi South 9.2 mph - N/A   Clear
9:35 PM 57.2 °F - 28.4 °F 33% 29.99 in 10.0 mi South 9.2 mph - N/A   Clear
9:55 PM 57.2 °F - 28.4 °F 33% 29.99 in 10.0 mi South 6.9 mph - N/A   Clear
10:15 PM 57.2 °F - 28.4 °F 33% 29.98 in 10.0 mi South 9.2 mph - N/A   Clear
10:35 PM 57.2 °F - 30.2 °F 36% 29.98 in 10.0 mi South 11.5 mph - N/A   Clear
10:55 PM 57.2 °F - 30.2 °F 36% 29.98 in 10.0 mi South 11.5 mph 19.6 mph N/A   Clear
11:15 PM 55.4 °F - 32.0 °F 41% 29.97 in 10.0 mi South 12.7 mph 18.4 mph N/A   Clear
11:35 PM 55.4 °F - 33.8 °F 44% 29.97 in 10.0 mi SSE 10.4 mph - N/A   Scattered Clouds
11:55 PM 55.4 °F - 33.8 °F 44% 29.95 in 10.0 mi South 16.1 mph 20.7 mph N/A   Mostly Cloudy